| time (UTC) | temp F | wind direction | speed MPH | gust MPH | rain 1hr in | rain 24hr in | rain mn in | humidity % | barometer mb |
| 20260831150101 | 93 | 233 | 5.0 | 10.0 | 0.00 | 0.00 | 0.00 | 45 | 1012.9 |
| 20260831145601 | 93 | 201 | 4.0 | 9.0 | 0.00 | 0.00 | 0.00 | 45 | 1013.0 |
| 20260831145055 | 93 | 238 | 4.0 | 7.0 | 0.00 | 0.00 | 0.00 | 45 | 1013.0 |
| 20260831144556 | 93 | 172 | 3.0 | 6.0 | 0.00 | 0.00 | 0.00 | 46 | 1013.0 |
| 20260831144048 | 92 | 226 | 3.0 | 11.0 | 0.00 | 0.00 | 0.00 | 48 | 1013.0 |
| 20260831143549 | 92 | 238 | 4.0 | 11.0 | 0.00 | 0.00 | 0.00 | 46 | 1013.0 |
| 20260831143106 | 92 | 241 | 6.0 | 11.0 | 0.00 | 0.00 | 0.00 | 46 | 1013.1 |
| 20260831142601 | 92 | 216 | 3.0 | 8.0 | 0.00 | 0.00 | 0.00 | 46 | 1013.0 |
| 20260831142102 | 92 | 198 | 3.0 | 10.0 | 0.00 | 0.00 | 0.00 | 46 | 1013.0 |
| 20260831141546 | 92 | 243 | 7.0 | 10.0 | 0.00 | 0.00 | 0.00 | 45 | 1013.1 |
| 20260831141107 | 92 | 184 | 4.0 | 13.0 | 0.00 | 0.00 | 0.00 | 46 | 1013.1 |
| 20260831140601 | 92 | 235 | 8.0 | 13.0 | 0.00 | 0.00 | 0.00 | 45 | 1013.1 |
| 20260831140123 | 92 | 221 | 6.0 | 10.0 | 0.00 | 0.00 | 0.00 | 45 | 1013.1 |
| 20260831135622 | 92 | 188 | 4.0 | 12.0 | 0.00 | 0.00 | 0.00 | 46 | 1013.2 |
| 20260831135122 | 92 | 217 | 6.0 | 12.0 | 0.00 | 0.00 | 0.00 | 46 | 1013.2 |
| 20260831134553 | 92 | 214 | 6.0 | 12.0 | 0.00 | 0.00 | 0.00 | 46 | 1013.3 |
| 20260831134054 | 92 | 229 | 5.0 | 11.0 | 0.00 | 0.00 | 0.00 | 45 | 1013.3 |
| 20260831133544 | 92 | 259 | 6.0 | 11.0 | 0.00 | 0.00 | 0.00 | 44 | 1013.3 |
| 20260831133046 | 92 | 240 | 6.0 | 10.0 | 0.00 | 0.00 | 0.00 | 43 | 1013.3 |
| 20260831132544 | 92 | 196 | 5.0 | 10.0 | 0.00 | 0.00 | 0.00 | 46 | 1013.3 |
| 20260831132058 | 92 | 237 | 6.0 | 10.0 | 0.00 | 0.00 | 0.00 | 46 | 1013.4 |
| 20260831131559 | 92 | 215 | 6.0 | 10.0 | 0.00 | 0.00 | 0.00 | 45 | 1013.4 |
| 20260831131053 | 92 | 241 | 5.0 | 8.0 | 0.00 | 0.00 | 0.00 | 45 | 1013.4 |
| 20260831130554 | 92 | 227 | 5.0 | 9.0 | 0.00 | 0.00 | 0.00 | 46 | 1013.5 |
| 20260831130048 | 92 | 224 | 4.0 | 10.0 | 0.00 | 0.00 | 0.00 | 46 | 1013.6 |
| 20260831125549 | 92 | 213 | 6.0 | 11.0 | 0.00 | 0.00 | 0.00 | 46 | 1013.5 |
| 20260831125102 | 92 | 248 | 4.0 | 10.0 | 0.00 | 0.00 | 0.00 | 47 | 1013.7 |
| 20260831124619 | 93 | 215 | 4.0 | 10.0 | 0.00 | 0.00 | 0.00 | 47 | 1013.8 |
| 20260831124059 | 92 | 168 | 4.0 | 10.0 | 0.00 | 0.00 | 0.00 | 47 | 1013.8 |
| 20260831123552 | 92 | 188 | 4.0 | 10.0 | 0.00 | 0.00 | 0.00 | 47 | 1013.8 |
| 20260831123046 | 91 | 215 | 3.0 | 9.0 | 0.00 | 0.00 | 0.00 | 47 | 1013.9 |
| 20260831122547 | 91 | 200 | 6.0 | 11.0 | 0.00 | 0.00 | 0.00 | 47 | 1013.9 |
| 20260831122106 | 91 | 236 | 6.0 | 11.0 | 0.00 | 0.00 | 0.00 | 47 | 1014.0 |
| 20260831121621 | 92 | 227 | 5.0 | 11.0 | 0.00 | 0.00 | 0.00 | 47 | 1014.0 |
| 20260831121100 | 91 | 240 | 5.0 | 10.0 | 0.00 | 0.00 | 0.00 | 47 | 1014.0 |
| 20260831120554 | 91 | 210 | 6.0 | 10.0 | 0.00 | 0.00 | 0.00 | 46 | 1014.0 |
| 20260831120055 | 91 | 235 | 5.0 | 10.0 | 0.00 | 0.00 | 0.00 | 46 | 1014.1 |
| 20260831115549 | 91 | 254 | 4.0 | 10.0 | 0.00 | 0.00 | 0.00 | 45 | 1014.1 |
| 20260831115050 | 92 | 214 | 4.0 | 7.0 | 0.00 | 0.00 | 0.00 | 46 | 1014.0 |
| 20260831114543 | 91 | 151 | 3.0 | 7.0 | 0.00 | 0.00 | 0.00 | 46 | 1014.1 |
| 20260831114044 | 91 | 242 | 2.0 | 8.0 | 0.00 | 0.00 | 0.00 | 47 | 1014.2 |
| 20260831113558 | 91 | 229 | 4.0 | 9.0 | 0.00 | 0.00 | 0.00 | 47 | 1014.2 |
| 20260831113059 | 91 | 261 | 4.0 | 8.0 | 0.00 | 0.00 | 0.00 | 48 | 1014.3 |
| 20260831112620 | 91 | 279 | 3.0 | 8.0 | 0.00 | 0.00 | 0.00 | 46 | 1014.3 |
| 20260831112113 | 91 | 245 | 5.0 | 9.0 | 0.00 | 0.00 | 0.00 | 47 | 1014.4 |
| 20260831111613 | 90 | 207 | 2.0 | 11.0 | 0.00 | 0.00 | 0.00 | 46 | 1014.3 |
| 20260831111053 | 90 | 240 | 6.0 | 11.0 | 0.00 | 0.00 | 0.00 | 46 | 1014.4 |
| 20260831110546 | 91 | 246 | 6.0 | 9.0 | 0.00 | 0.00 | 0.00 | 47 | 1014.3 |
| 20260831110047 | 90 | 205 | 2.0 | 8.0 | 0.00 | 0.00 | 0.00 | 47 | 1014.3 |
| 20260831105600 | 90 | 196 | 3.0 | 8.0 | 0.00 | 0.00 | 0.00 | 47 | 1014.4 |
| 20260831105101 | 90 | 205 | 5.0 | 10.0 | 0.00 | 0.00 | 0.00 | 47 | 1014.4 |
| 20260831104601 | 90 | 255 | 6.0 | 9.0 | 0.00 | 0.00 | 0.00 | 47 | 1014.4 |
| 20260831104053 | 90 | 253 | 5.0 | 9.0 | 0.00 | 0.00 | 0.00 | 47 | 1014.4 |
| 20260831103611 | 90 | 180 | 4.0 | 9.0 | 0.00 | 0.00 | 0.00 | 48 | 1014.5 |
| 20260831103050 | 89 | 242 | 5.0 | 8.0 | 0.00 | 0.00 | 0.00 | 47 | 1014.6 |
| 20260831102543 | 89 | 211 | 3.0 | 6.0 | 0.00 | 0.00 | 0.00 | 49 | 1014.5 |
| 20260831102106 | 89 | 209 | 3.0 | 8.0 | 0.00 | 0.00 | 0.00 | 50 | 1014.6 |
| 20260831101558 | 89 | 216 | 4.0 | 9.0 | 0.00 | 0.00 | 0.00 | 50 | 1014.6 |
| 20260831101052 | 89 | 205 | 2.0 | 10.0 | 0.00 | 0.00 | 0.00 | 52 | 1014.6 |
| 20260831100613 | 89 | 232 | 6.0 | 10.0 | 0.00 | 0.00 | 0.00 | 51 | 1014.6 |
| 20260831100053 | 88 | 183 | 1.0 | 8.0 | 0.00 | 0.00 | 0.00 | 52 | 1014.6 |
| 20260831095608 | 88 | 228 | 4.0 | 8.0 | 0.00 | 0.00 | 0.00 | 50 | 1014.7 |
| 20260831095048 | 88 | 227 | 6.0 | 9.0 | 0.00 | 0.00 | 0.00 | 49 | 1014.7 |
| 20260831094542 | 88 | 186 | 3.0 | 6.0 | 0.00 | 0.00 | 0.00 | 54 | 1014.7 |
| 20260831094044 | 88 | 246 | 1.0 | 7.0 | 0.00 | 0.00 | 0.00 | 55 | 1014.8 |
| 20260831093605 | 88 | 236 | 4.0 | 7.0 | 0.00 | 0.00 | 0.00 | 54 | 1014.8 |
| 20260831093059 | 88 | 237 | 4.0 | 6.0 | 0.00 | 0.00 | 0.00 | 53 | 1014.8 |
| 20260831092552 | 88 | 188 | 1.0 | 5.0 | 0.00 | 0.00 | 0.00 | 55 | 1014.9 |
| 20260831092053 | 88 | 190 | 2.0 | 4.0 | 0.00 | 0.00 | 0.00 | 55 | 1015.0 |
| 20260831091547 | 88 | 157 | 0.0 | 5.0 | 0.00 | 0.00 | 0.00 | 55 | 1015.0 |
| 20260831091049 | 87 | 153 | 1.0 | 5.0 | 0.00 | 0.00 | 0.00 | 55 | 1015.0 |
| 20260831090542 | 87 | 228 | 1.0 | 4.0 | 0.00 | 0.00 | 0.00 | 55 | 1015.0 |
| 20260831090043 | 87 | 200 | 3.0 | 4.0 | 0.00 | 0.00 | 0.00 | 55 | 1015.0 |
| 20260831085606 | 86 | 196 | 2.0 | 6.0 | 0.00 | 0.00 | 0.00 | 56 | 1015.0 |
| 20260831085058 | 86 | 188 | 2.0 | 6.0 | 0.00 | 0.00 | 0.00 | 57 | 1015.0 |
| 20260831084619 | 86 | 111 | 1.0 | 3.0 | 0.00 | 0.00 | 0.00 | 57 | 1015.0 |
| 20260831084051 | 86 | 110 | 0.0 | 3.0 | 0.00 | 0.00 | 0.00 | 56 | 1015.0 |
| 20260831083551 | 85 | 109 | 2.0 | 3.0 | 0.00 | 0.00 | 0.00 | 56 | 1015.0 |
| 20260831083045 | 85 | 90 | 1.0 | 2.0 | 0.00 | 0.00 | 0.00 | 55 | 1015.0 |
| 20260831082606 | 84 | 88 | 1.0 | 2.0 | 0.00 | 0.00 | 0.00 | 57 | 1014.9 |
| 20260831082100 | 83 | 17 | 0.0 | 3.0 | 0.00 | 0.00 | 0.00 | 59 | 1014.9 |
| 20260831081619 | 83 | 16 | 0.0 | 2.0 | 0.00 | 0.00 | 0.00 | 62 | 1014.9 |
| 20260831081055 | 83 | 16 | 1.0 | 2.0 | 0.00 | 0.00 | 0.00 | 63 | 1014.9 |
| 20260831080548 | 82 | 17 | 0.0 | 2.0 | 0.00 | 0.00 | 0.00 | 63 | 1014.8 |
| 20260831080048 | 82 | 17 | 0.0 | 1.0 | 0.00 | 0.00 | 0.00 | 64 | 1014.8 |
| 20260831075609 | 81 | 17 | 0.0 | 3.0 | 0.00 | 0.00 | 0.00 | 64 | 1014.8 |
| 20260831075043 | 81 | 17 | 1.0 | 3.0 | 0.00 | 0.00 | 0.00 | 65 | 1014.8 |
| 20260831074557 | 80 | 20 | 1.0 | 3.0 | 0.00 | 0.00 | 0.00 | 66 | 1014.8 |
| 20260831074057 | 80 | 30 | 0.0 | 2.0 | 0.00 | 0.00 | 0.00 | 66 | 1014.7 |
| 20260831073554 | 79 | 30 | 1.0 | 2.0 | 0.00 | 0.00 | 0.00 | 67 | 1014.7 |
| 20260831073116 | 79 | 30 | 1.0 | 2.0 | 0.00 | 0.00 | 0.00 | 67 | 1014.7 |
| 20260831072607 | 78 | 31 | 0.0 | 2.0 | 0.00 | 0.00 | 0.00 | 68 | 1014.7 |
| 20260831072047 | 78 | 33 | 0.0 | 3.0 | 0.00 | 0.00 | 0.00 | 69 | 1014.7 |
| 20260831071605 | 77 | 33 | 1.0 | 3.0 | 0.00 | 0.00 | 0.00 | 69 | 1014.6 |
| 20260831071057 | 77 | 33 | 1.0 | 2.0 | 0.00 | 0.00 | 0.00 | 69 | 1014.6 |
| 20260831070558 | 77 | 31 | 1.0 | 3.0 | 0.00 | 0.00 | 0.00 | 70 | 1014.6 |
| 20260831070053 | 76 | 5 | 0.0 | 4.0 | 0.00 | 0.00 | 0.00 | 72 | 1014.6 |
| 20260831065614 | 76 | 10 | 2.0 | 4.0 | 0.00 | 0.00 | 0.00 | 71 | 1014.6 |
| 20260831065047 | 76 | 355 | 2.0 | 3.0 | 0.00 | 0.00 | 0.00 | 71 | 1014.6 |
| 20260831064547 | 75 | 335 | 1.0 | 4.0 | 0.00 | 0.00 | 0.00 | 72 | 1014.6 |
| 20260831064107 | 75 | 327 | 2.0 | 4.0 | 0.00 | 0.00 | 0.00 | 72 | 1014.6 |
| 20260831063630 | 75 | 346 | 2.0 | 4.0 | 0.00 | 0.00 | 0.00 | 72 | 1014.5 |
| 20260831063101 | 74 | 298 | 2.0 | 3.0 | 0.00 | 0.00 | 0.00 | 73 | 1014.5 |
| 20260831062555 | 74 | 295 | 1.0 | 3.0 | 0.00 | 0.00 | 0.00 | 75 | 1014.5 |
| 20260831062056 | 73 | 293 | 2.0 | 3.0 | 0.00 | 0.00 | 0.00 | 76 | 1014.6 |
| 20260831061550 | 73 | 292 | 0.0 | 4.0 | 0.00 | 0.00 | 0.00 | 77 | 1014.5 |
| 20260831061050 | 73 | 292 | 2.0 | 4.0 | 0.00 | 0.00 | 0.00 | 77 | 1014.6 |
| 20260831060551 | 72 | 285 | 1.0 | 2.0 | 0.00 | 0.00 | 0.00 | 78 | 1014.6 |
| 20260831060045 | 72 | 285 | 0.0 | 3.0 | 0.00 | 0.00 | 0.00 | 78 | 1014.5 |
| 20260831055545 | 72 | 284 | 1.0 | 2.0 | 0.00 | 0.00 | 0.00 | 78 | 1014.4 |
| 20260831055105 | 71 | 284 | 1.0 | 3.0 | 0.00 | 0.00 | 0.00 | 78 | 1014.4 |
| 20260831054558 | 71 | 283 | 1.0 | 3.0 | 0.00 | 0.00 | 0.00 | 78 | 1014.4 |
| 20260831054052 | 71 | 282 | 0.0 | 1.0 | 0.00 | 0.00 | 0.00 | 78 | 1014.4 |
| 20260831053553 | 71 | 282 | 0.0 | 1.0 | 0.00 | 0.00 | 0.00 | 79 | 1014.4 |
| 20260831053053 | 70 | 282 | 0.0 | 0.0 | 0.00 | 0.00 | 0.00 | 79 | 1014.3 |
| 20260831052616 | 70 | 282 | 0.0 | 0.0 | 0.00 | 0.00 | 0.00 | 79 | 1014.3 |
| 20260831052047 | 70 | 282 | 0.0 | 0.0 | 0.00 | 0.00 | 0.00 | 80 | 1014.3 |
| 20260831051608 | 70 | 282 | 0.0 | 0.0 | 0.00 | 0.00 | 0.00 | 80 | 1014.2 |
| 20260831051043 | 70 | 282 | 0.0 | 0.0 | 0.00 | 0.00 | 0.00 | 80 | 1014.2 |
| 20260831050604 | 70 | 282 | 0.0 | 2.0 | 0.00 | 0.00 | 0.00 | 80 | 1014.2 |
| 20260831050057 | 70 | 282 | 0.0 | 2.0 | 0.00 | 0.00 | 0.00 | 80 | 1014.2 |
| 20260831045559 | 70 | 282 | 0.0 | 2.0 | 0.00 | 0.00 | 0.00 | 80 | 1014.1 |
| 20260831045052 | 69 | 282 | 0.0 | 2.0 | 0.00 | 0.00 | 0.00 | 80 | 1014.1 |
| 20260831044548 | 69 | 282 | 1.0 | 2.0 | 0.00 | 0.00 | 0.00 | 80 | 1014.1 |
| 20260831044048 | 69 | 281 | 0.0 | 2.0 | 0.00 | 0.00 | 0.00 | 80 | 1014.1 |
| 20260831043609 | 69 | 281 | 1.0 | 2.0 | 0.00 | 0.00 | 0.00 | 80 | 1014.1 |
| 20260831043042 | 69 | 279 | 1.0 | 2.0 | 0.00 | 0.00 | 0.00 | 80 | 1014.0 |
| 20260831042549 | 69 | 279 | 0.0 | 3.0 | 0.00 | 0.00 | 0.00 | 80 | 1014.1 |
| 20260831042043 | 69 | 277 | 0.0 | 3.0 | 0.00 | 0.00 | 0.00 | 81 | 1014.1 |
| 20260831041604 | 69 | 274 | 1.0 | 2.0 | 0.00 | 0.00 | 0.00 | 81 | 1014.0 |
| 20260831041147 | 69 | 273 | 0.0 | 2.0 | 0.00 | 0.00 | 0.00 | 81 | 1014.0 |
| 20260831040558 | 70 | 273 | 1.0 | 2.0 | 0.00 | 0.00 | 0.00 | 81 | 1014.0 |
| 20260831040119 | 70 | 271 | 0.0 | 2.0 | 0.00 | 0.00 | 0.00 | 81 | 1014.0 |
| 20260831035619 | 70 | 271 | 0.0 | 2.0 | 0.00 | 0.00 | 0.00 | 81 | 1013.9 |
| 20260831035051 | 70 | 271 | 0.0 | 2.0 | 0.00 | 0.00 | 0.00 | 80 | 1014.0 |
| 20260831034612 | 70 | 270 | 0.0 | 2.0 | 0.00 | 0.00 | 0.00 | 80 | 1014.0 |
| 20260831034111 | 70 | 270 | 0.0 | 2.0 | 0.00 | 0.00 | 0.00 | 80 | 1014.1 |
| 20260831033544 | 70 | 269 | 0.0 | 0.0 | 0.00 | 0.00 | 0.00 | 80 | 1014.1 |
| 20260831033045 | 70 | 269 | 0.0 | 0.0 | 0.00 | 0.00 | 0.00 | 79 | 1014.2 |
| 20260831032627 | 70 | 269 | 0.0 | 0.0 | 0.00 | 0.00 | 0.00 | 79 | 1014.2 |
| 20260831032059 | 70 | 269 | 0.0 | 0.0 | 0.00 | 0.00 | 0.00 | 79 | 1014.2 |
| 20260831031601 | 71 | 269 | 0.0 | 0.0 | 0.00 | 0.00 | 0.00 | 78 | 1014.3 |
| 20260831031054 | 71 | 269 | 0.0 | 0.0 | 0.00 | 0.00 | 0.00 | 78 | 1014.3 |
| 20260831030548 | 71 | 269 | 0.0 | 0.0 | 0.00 | 0.00 | 0.00 | 78 | 1014.4 |
| 20260831030049 | 71 | 269 | 0.0 | 0.0 | 0.00 | 0.00 | 0.00 | 77 | 1014.4 |
| 20260831025543 | 71 | 269 | 0.0 | 0.0 | 0.00 | 0.00 | 0.00 | 77 | 1014.4 |
| 20260831025109 | 71 | 269 | 0.0 | 0.0 | 0.00 | 0.00 | 0.00 | 77 | 1014.5 |
| 20260831024622 | 71 | 269 | 0.0 | 0.0 | 0.00 | 0.00 | 0.00 | 76 | 1014.5 |
| 20260831024101 | 72 | 269 | 0.0 | 0.0 | 0.00 | 0.00 | 0.00 | 75 | 1014.4 |
| 20260831023555 | 72 | 269 | 0.0 | 0.0 | 0.00 | 0.00 | 0.00 | 75 | 1014.4 |
| 20260831023056 | 72 | 269 | 0.0 | 0.0 | 0.00 | 0.00 | 0.00 | 75 | 1014.4 |
| 20260831022610 | 72 | 269 | 0.0 | 0.0 | 0.00 | 0.00 | 0.00 | 74 | 1014.3 |
| 20260831022045 | 72 | 269 | 0.0 | 0.0 | 0.00 | 0.00 | 0.00 | 74 | 1014.3 |
| 20260831021545 | 72 | 269 | 0.0 | 0.0 | 0.00 | 0.00 | 0.00 | 74 | 1014.3 |
| 20260831021100 | 72 | 269 | 0.0 | 0.0 | 0.00 | 0.00 | 0.00 | 73 | 1014.3 |
| 20260831020542 | 73 | 269 | 0.0 | 0.0 | 0.00 | 0.00 | 0.00 | 73 | 1014.3 |
| 20260831020055 | 73 | 269 | 0.0 | 0.0 | 0.00 | 0.00 | 0.00 | 73 | 1014.3 |
| 20260831015553 | 73 | 269 | 0.0 | 0.0 | 0.00 | 0.00 | 0.00 | 74 | 1014.3 |
| 20260831015114 | 73 | 269 | 0.0 | 0.0 | 0.00 | 0.00 | 0.00 | 74 | 1014.4 |
| 20260831014547 | 73 | 269 | 0.0 | 0.0 | 0.00 | 0.00 | 0.00 | 73 | 1014.3 |
| 20260831014108 | 73 | 269 | 0.0 | 0.0 | 0.00 | 0.00 | 0.00 | 74 | 1014.3 |
| 20260831013608 | 73 | 269 | 0.0 | 0.0 | 0.00 | 0.00 | 0.00 | 74 | 1014.3 |
| 20260831013042 | 73 | 269 | 0.0 | 0.0 | 0.00 | 0.00 | 0.00 | 74 | 1014.4 |
| 20260831012604 | 73 | 269 | 0.0 | 0.0 | 0.00 | 0.00 | 0.00 | 75 | 1014.4 |
| 20260831012057 | 73 | 269 | 0.0 | 0.0 | 0.00 | 0.00 | 0.00 | 75 | 1014.4 |
| 20260831011551 | 73 | 269 | 0.0 | 0.0 | 0.00 | 0.00 | 0.00 | 75 | 1014.4 |
| 20260831011113 | 73 | 269 | 0.0 | 0.0 | 0.00 | 0.00 | 0.00 | 76 | 1014.4 |
| 20260831010552 | 73 | 269 | 0.0 | 0.0 | 0.00 | 0.00 | 0.00 | 76 | 1014.5 |
| 20260831010045 | 73 | 269 | 0.0 | 0.0 | 0.00 | 0.00 | 0.00 | 76 | 1014.5 |
| 20260831005545 | 73 | 269 | 0.0 | 0.0 | 0.00 | 0.00 | 0.00 | 76 | 1014.5 |
| 20260831005046 | 73 | 269 | 0.0 | 0.0 | 0.00 | 0.00 | 0.00 | 76 | 1014.5 |
| 20260831004608 | 73 | 269 | 0.0 | 0.0 | 0.00 | 0.00 | 0.00 | 76 | 1014.5 |
| 20260831004121 | 73 | 269 | 0.0 | 1.0 | 0.00 | 0.00 | 0.00 | 76 | 1014.5 |
| 20260831003601 | 73 | 269 | 0.0 | 1.0 | 0.00 | 0.00 | 0.00 | 76 | 1014.6 |
| 20260831003054 | 72 | 268 | 0.0 | 0.0 | 0.00 | 0.00 | 0.00 | 77 | 1014.5 |
| 20260831002555 | 72 | 268 | 0.0 | 0.0 | 0.00 | 0.00 | 0.00 | 77 | 1014.6 |
| 20260831002050 | 72 | 268 | 0.0 | 0.0 | 0.00 | 0.00 | 0.00 | 77 | 1014.5 |
| 20260831001551 | 72 | 268 | 0.0 | 0.0 | 0.00 | 0.00 | 0.00 | 77 | 1014.6 |
| 20260831001044 | 72 | 269 | 0.0 | 0.0 | 0.00 | 0.00 | 0.00 | 77 | 1014.6 |
| 20260831000605 | 72 | 269 | 0.0 | 0.0 | 0.00 | 0.00 | 0.00 | 78 | 1014.6 |
| 20260831000100 | 72 | 269 | 0.0 | 2.0 | 0.00 | 0.00 | 0.00 | 78 | 1014.7 |
| 20260830235600 | 72 | 269 | 0.0 | 2.0 | 0.00 | 0.00 | 0.00 | 78 | 1014.7 |
| 20260830235121 | 73 | 268 | 0.0 | 0.0 | 0.00 | 0.00 | 0.00 | 78 | 1014.7 |
| 20260830234554 | 73 | 267 | 0.0 | 0.0 | 0.00 | 0.00 | 0.00 | 78 | 1014.7 |
| 20260830234054 | 73 | 267 | 0.0 | 0.0 | 0.00 | 0.00 | 0.00 | 78 | 1014.7 |
| 20260830233606 | 73 | 267 | 0.0 | 0.0 | 0.00 | 0.00 | 0.00 | 77 | 1014.7 |
| 20260830233045 | 73 | 267 | 0.0 | 0.0 | 0.00 | 0.00 | 0.00 | 77 | 1014.7 |
| 20260830232606 | 73 | 267 | 0.0 | 3.0 | 0.00 | 0.00 | 0.00 | 77 | 1014.7 |
| 20260830232108 | 73 | 267 | 1.0 | 3.0 | 0.00 | 0.00 | 0.00 | 77 | 1014.7 |
| 20260830231601 | 73 | 280 | 0.0 | 2.0 | 0.00 | 0.00 | 0.00 | 77 | 1014.7 |
| 20260830231054 | 74 | 309 | 0.0 | 2.0 | 0.00 | 0.00 | 0.00 | 77 | 1014.7 |
| 20260830230554 | 74 | 309 | 0.0 | 1.0 | 0.00 | 0.00 | 0.00 | 76 | 1014.8 |
| 20260830230115 | 74 | 310 | 0.0 | 1.0 | 0.00 | 0.00 | 0.00 | 76 | 1014.7 |
| 20260830225548 | 74 | 310 | 0.0 | 2.0 | 0.00 | 0.00 | 0.00 | 75 | 1014.8 |
| 20260830225107 | 74 | 310 | 0.0 | 2.0 | 0.00 | 0.00 | 0.00 | 75 | 1014.8 |
| 20260830224606 | 74 | 310 | 0.0 | 3.0 | 0.00 | 0.00 | 0.00 | 74 | 1014.8 |
| 20260830224120 | 74 | 309 | 1.0 | 3.0 | 0.00 | 0.00 | 0.00 | 74 | 1014.8 |
| 20260830223600 | 74 | 308 | 0.0 | 1.0 | 0.00 | 0.00 | 0.00 | 74 | 1014.8 |
| 20260830223121 | 74 | 308 | 0.0 | 2.0 | 0.00 | 0.00 | 0.00 | 74 | 1014.8 |
| 20260830222554 | 75 | 308 | 0.0 | 2.0 | 0.00 | 0.00 | 0.00 | 74 | 1014.7 |
| 20260830222054 | 75 | 308 | 1.0 | 2.0 | 0.00 | 0.00 | 0.00 | 74 | 1014.8 |
| 20260830221548 | 75 | 308 | 0.0 | 0.0 | 0.00 | 0.00 | 0.00 | 75 | 1014.8 |
| 20260830221052 | 75 | 308 | 0.0 | 0.0 | 0.00 | 0.00 | 0.00 | 75 | 1014.8 |
| 20260830220544 | 75 | 308 | 0.0 | 0.0 | 0.00 | 0.00 | 0.00 | 74 | 1014.7 |
| 20260830220044 | 75 | 308 | 0.0 | 0.0 | 0.00 | 0.00 | 0.00 | 74 | 1014.7 |
| 20260830215605 | 75 | 308 | 0.0 | 0.0 | 0.00 | 0.00 | 0.00 | 75 | 1014.8 |
| 20260830215059 | 75 | 308 | 0.0 | 0.0 | 0.00 | 0.00 | 0.00 | 75 | 1014.8 |
| 20260830214602 | 76 | 308 | 0.0 | 0.0 | 0.00 | 0.00 | 0.00 | 74 | 1014.7 |
| 20260830214054 | 76 | 308 | 0.0 | 0.0 | 0.00 | 0.00 | 0.00 | 74 | 1014.7 |
| 20260830213548 | 76 | 308 | 0.0 | 0.0 | 0.00 | 0.00 | 0.00 | 74 | 1014.7 |
| 20260830213048 | 76 | 308 | 0.0 | 0.0 | 0.00 | 0.00 | 0.00 | 74 | 1014.7 |
| 20260830212542 | 76 | 308 | 0.0 | 0.0 | 0.00 | 0.00 | 0.00 | 74 | 1014.6 |
| 20260830212044 | 76 | 308 | 0.0 | 1.0 | 0.00 | 0.00 | 0.00 | 73 | 1014.7 |
| 20260830211543 | 76 | 308 | 0.0 | 0.0 | 0.00 | 0.00 | 0.00 | 73 | 1014.6 |
| 20260830211057 | 76 | 303 | 0.0 | 3.0 | 0.00 | 0.00 | 0.00 | 72 | 1014.6 |
| 20260830210557 | 77 | 303 | 1.0 | 8.0 | 0.00 | 0.00 | 0.00 | 72 | 1014.5 |
| 20260830210051 | 77 | 301 | 0.0 | 8.0 | 0.00 | 0.00 | 0.00 | 71 | 1014.5 |
| 20260830205552 | 78 | 247 | 0.0 | 3.0 | 0.00 | 0.00 | 0.00 | 70 | 1014.4 |
| 20260830205046 | 78 | 163 | 0.0 | 0.0 | 0.00 | 0.00 | 0.00 | 68 | 1014.4 |
| 20260830204607 | 78 | 163 | 0.0 | 0.0 | 0.00 | 0.00 | 0.00 | 69 | 1014.3 |
| 20260830204101 | 78 | 163 | 0.0 | 0.0 | 0.00 | 0.00 | 0.00 | 69 | 1014.3 |
| 20260830203552 | 78 | 163 | 0.0 | 0.0 | 0.00 | 0.00 | 0.00 | 68 | 1014.3 |
| 20260830203053 | 78 | 163 | 0.0 | 0.0 | 0.00 | 0.00 | 0.00 | 68 | 1014.3 |
| 20260830202547 | 79 | 163 | 0.0 | 0.0 | 0.00 | 0.00 | 0.00 | 68 | 1014.4 |
| 20260830202047 | 79 | 163 | 0.0 | 0.0 | 0.00 | 0.00 | 0.00 | 67 | 1014.3 |
| 20260830201608 | 79 | 163 | 0.0 | 1.0 | 0.00 | 0.00 | 0.00 | 67 | 1014.3 |
| 20260830201101 | 79 | 163 | 0.0 | 0.0 | 0.00 | 0.00 | 0.00 | 66 | 1014.3 |
| 20260830200603 | 79 | 163 | 0.0 | 0.0 | 0.00 | 0.00 | 0.00 | 66 | 1014.2 |
| 20260830200057 | 80 | 163 | 0.0 | 1.0 | 0.00 | 0.00 | 0.00 | 66 | 1014.2 |
| 20260830195551 | 80 | 163 | 0.0 | 1.0 | 0.00 | 0.00 | 0.00 | 65 | 1014.2 |
| 20260830195052 | 80 | 163 | 0.0 | 1.0 | 0.00 | 0.00 | 0.00 | 65 | 1014.3 |
| 20260830194543 | 80 | 163 | 0.0 | 1.0 | 0.00 | 0.00 | 0.00 | 64 | 1014.2 |
| 20260830194044 | 81 | 163 | 0.0 | 1.0 | 0.00 | 0.00 | 0.00 | 64 | 1014.2 |
| 20260830193605 | 81 | 163 | 0.0 | 0.0 | 0.00 | 0.00 | 0.00 | 64 | 1014.2 |
| 20260830193057 | 81 | 163 | 0.0 | 2.0 | 0.00 | 0.00 | 0.00 | 64 | 1014.2 |
| 20260830192555 | 81 | 163 | 1.0 | 2.0 | 0.00 | 0.00 | 0.00 | 63 | 1014.2 |
| 20260830192057 | 82 | 163 | 0.0 | 0.0 | 0.00 | 0.00 | 0.00 | 63 | 1014.2 |
| 20260830191551 | 82 | 163 | 0.0 | 0.0 | 0.00 | 0.00 | 0.00 | 62 | 1014.1 |
| 20260830191054 | 82 | 163 | 0.0 | 2.0 | 0.00 | 0.00 | 0.00 | 62 | 1014.1 |
| 20260830190546 | 82 | 163 | 1.0 | 2.0 | 0.00 | 0.00 | 0.00 | 62 | 1014.1 |
| 20260830190107 | 82 | 163 | 0.0 | 3.0 | 0.00 | 0.00 | 0.00 | 61 | 1014.1 |
| 20260830185601 | 83 | 163 | 0.0 | 3.0 | 0.00 | 0.00 | 0.00 | 61 | 1014.1 |
| 20260830185042 | 83 | 162 | 1.0 | 4.0 | 0.00 | 0.00 | 0.00 | 61 | 1014.1 |
| 20260830184603 | 83 | 161 | 1.0 | 3.0 | 0.00 | 0.00 | 0.00 | 60 | 1014.0 |
| 20260830184056 | 83 | 160 | 1.0 | 3.0 | 0.00 | 0.00 | 0.00 | 59 | 1014.0 |
| 20260830183550 | 84 | 157 | 1.0 | 2.0 | 0.00 | 0.00 | 0.00 | 58 | 1013.9 |
| 20260830183051 | 84 | 157 | 0.0 | 2.0 | 0.00 | 0.00 | 0.00 | 58 | 1013.9 |
| 20260830182544 | 84 | 157 | 0.0 | 2.0 | 0.00 | 0.00 | 0.00 | 58 | 1013.8 |
| 20260830182044 | 85 | 157 | 0.0 | 3.0 | 0.00 | 0.00 | 0.00 | 57 | 1013.7 |
| 20260830181606 | 85 | 161 | 1.0 | 4.0 | 0.00 | 0.00 | 0.00 | 56 | 1013.7 |
| 20260830181058 | 85 | 159 | 0.0 | 3.0 | 0.00 | 0.00 | 0.00 | 56 | 1013.6 |
| 20260830180558 | 85 | 159 | 1.0 | 3.0 | 0.00 | 0.00 | 0.00 | 55 | 1013.5 |
| 20260830180052 | 86 | 161 | 0.0 | 2.0 | 0.00 | 0.00 | 0.00 | 55 | 1013.5 |
| 20260830175553 | 86 | 160 | 0.0 | 1.0 | 0.00 | 0.00 | 0.00 | 54 | 1013.5 |
| 20260830175107 | 86 | 160 | 0.0 | 1.0 | 0.00 | 0.00 | 0.00 | 54 | 1013.4 |
| 20260830174546 | 87 | 160 | 0.0 | 3.0 | 0.00 | 0.00 | 0.00 | 53 | 1013.4 |
| 20260830174047 | 87 | 160 | 1.0 | 3.0 | 0.00 | 0.00 | 0.00 | 52 | 1013.3 |
| 20260830173601 | 87 | 161 | 0.0 | 4.0 | 0.00 | 0.00 | 0.00 | 52 | 1013.3 |
| 20260830173056 | 88 | 162 | 0.0 | 2.0 | 0.00 | 0.00 | 0.00 | 52 | 1013.3 |
| 20260830172558 | 88 | 162 | 0.0 | 3.0 | 0.00 | 0.00 | 0.00 | 51 | 1013.3 |
| 20260830172051 | 88 | 161 | 1.0 | 3.0 | 0.00 | 0.00 | 0.00 | 51 | 1013.3 |
| 20260830171552 | 88 | 160 | 1.0 | 3.0 | 0.00 | 0.00 | 0.00 | 50 | 1013.3 |
| 20260830171046 | 88 | 159 | 2.0 | 3.0 | 0.00 | 0.00 | 0.00 | 49 | 1013.3 |
| 20260830170607 | 88 | 166 | 2.0 | 4.0 | 0.00 | 0.00 | 0.00 | 49 | 1013.3 |
| 20260830170106 | 89 | 183 | 1.0 | 5.0 | 0.00 | 0.00 | 0.00 | 49 | 1013.4 |
| 20260830165600 | 89 | 190 | 3.0 | 5.0 | 0.00 | 0.00 | 0.00 | 49 | 1013.4 |
| 20260830165121 | 89 | 183 | 3.0 | 5.0 | 0.00 | 0.00 | 0.00 | 49 | 1013.4 |
| 20260830164600 | 89 | 175 | 1.0 | 4.0 | 0.00 | 0.00 | 0.00 | 48 | 1013.4 |
| 20260830164054 | 90 | 178 | 2.0 | 4.0 | 0.00 | 0.00 | 0.00 | 48 | 1013.4 |
| 20260830163614 | 90 | 180 | 2.0 | 5.0 | 0.00 | 0.00 | 0.00 | 48 | 1013.5 |
| 20260830163046 | 90 | 200 | 2.0 | 5.0 | 0.00 | 0.00 | 0.00 | 47 | 1013.5 |
| 20260830162547 | 90 | 168 | 4.0 | 5.0 | 0.00 | 0.00 | 0.00 | 46 | 1013.5 |
| 20260830162108 | 90 | 175 | 3.0 | 6.0 | 0.00 | 0.00 | 0.00 | 46 | 1013.5 |
| 20260830161600 | 90 | 211 | 3.0 | 6.0 | 0.00 | 0.00 | 0.00 | 46 | 1013.6 |
| 20260830161101 | 90 | 166 | 2.0 | 5.0 | 0.00 | 0.00 | 0.00 | 46 | 1013.5 |
| 20260830160555 | 90 | 173 | 3.0 | 6.0 | 0.00 | 0.00 | 0.00 | 46 | 1013.6 |
| 20260830160056 | 91 | 202 | 3.0 | 7.0 | 0.00 | 0.00 | 0.00 | 46 | 1013.6 |
| 20260830155550 | 91 | 183 | 4.0 | 7.0 | 0.00 | 0.00 | 0.00 | 46 | 1013.6 |
| 20260830155051 | 91 | 200 | 3.0 | 6.0 | 0.00 | 0.00 | 0.00 | 46 | 1013.6 |
| 20260830154544 | 91 | 157 | 1.0 | 7.0 | 0.00 | 0.00 | 0.00 | 45 | 1013.6 |
| 20260830154105 | 91 | 143 | 2.0 | 9.0 | 0.00 | 0.00 | 0.00 | 45 | 1013.7 |
| 20260830153605 | 91 | 113 | 4.0 | 9.0 | 0.00 | 0.00 | 0.00 | 45 | 1013.7 |
| 20260830153059 | 91 | 203 | 1.0 | 6.0 | 0.00 | 0.00 | 0.00 | 45 | 1013.7 |
| 20260830152553 | 91 | 213 | 2.0 | 7.0 | 0.00 | 0.00 | 0.00 | 44 | 1013.7 |
| 20260830152054 | 91 | 193 | 1.0 | 7.0 | 0.00 | 0.00 | 0.00 | 44 | 1013.7 |
| 20260830151615 | 91 | 50 | 2.0 | 5.0 | 0.00 | 0.00 | 0.00 | 44 | 1013.7 |
| 20260830151048 | 92 | 80 | 2.0 | 4.0 | 0.00 | 0.00 | 0.00 | 43 | 1013.7 |